Skip Page Navigation
NASA JPL Caltech
NASA Logo - Jet Propulsion Laboratory + View the NASA Portal
+ Center for Near-Earth Object Studies
JPL Home Earth Solar System Stars & Galaxies Technology
JPL Solar System Dynamics
BODIES ORBITS EPHEMERIDES TOOLS PHYSICAL DATA DISCOVERY FAQ SITE MAP
JPL Small-Body Database Browser
Search: [ help ]  
117773 (2005 GJ97)
Classification: Inner Main-belt Asteroid          SPK-ID: 2117773
Ephemeris | Orbit Diagram | Orbital Elements | Mission Design | Physical Parameters | Discovery Circumstances ]

[ show orbit diagram ]
Orbital Elements at Epoch 2459000.5 (2020-May-31.0) TDB
Reference: JPL 14 (heliocentric ecliptic J2000)
 Element Value Uncertainty (1-sigma)   Units 
e .07160631362279295 7.5563e-08  
a 1.969908345173054 1.1377e-08 au
q 1.828850470400436 1.4913e-07 au
i 24.46755767957139 6.5999e-06 deg
node 143.333607314414 1.8569e-05 deg
peri 212.9118996374651 4.7103e-05 deg
M 30.1038807214565 4.3351e-05 deg
tp 2458916.052374872359
(2020-Mar-07.55237487)
0.00012146 TDB
period 1009.874618068173
2.76
8.7484e-06
2.395e-08
d
yr
n .3564798971664991 3.0881e-09 deg/d
Q 2.110966219945673 1.2191e-08 au
  Orbit Determination Parameters
   # obs. used (total)      237  
   data-arc span      7393 days (20.24 yr)  
   first obs. used      1999-02-12  
   last obs. used      2019-05-11  
   planetary ephem.      DE431  
   SB-pert. ephem.      SB431-N16  
   condition code      0  
   norm. resid. RMS      .66442  
   source      ORB  
   producer      Otto Matic  
   solution date      2019-May-30 06:55:04  

Additional Information
 Earth MOID = .833284 au 
 Jupiter MOID = 3.17147 au 
 T_jup = 3.759 
[ show covariance matrix ]

Ephemeris | Orbit Diagram | Orbital Elements | Mission Design | Physical Parameters | Discovery Circumstances ]

Physical Parameter Table
Parameter Symbol Value Units Sigma Reference Notes
absolute magnitude H 16.8   n/a MPO432681  

117773 (2005 GJ97)          Discovered 2005-Apr-07 by LONEOS at Anderson Mesa
Reference: 20051019/Numbers.arcLast Updated: 2005-10-26

Alternate Designations
 2005 GJ97 = 2000 QG34 
Ephemeris | Orbit Diagram | Orbital Elements | Mission Design | Physical Parameters | Discovery Circumstances ]
ABOUT SSD CREDITS/AWARDS PRIVACY/COPYRIGHT GLOSSARY LINKS
FirstGov 2020-Jul-05 14:57 UT
(server date/time)  
NASA Home Page
Site Manager:   Ryan S. Park
Webmaster  Alan B. Chamberlin